BOV620 SLCB-SLVR

Flight info

Callsign BOV620
Flight time 0h 41m
Altitude 29000
Route MUNET UT712 VIR
Aircraft B738/M-SDE2E3FGHIRWXY/LB1

Departure

Time 2026-05-04 05:16
Airport Jorge Wilsterman International Airport (SLCB)

Arrival

Time 2026-05-04 05:58
Airport Viru Viru International Airport (SLVR)
Time Latitude Longitude Altitude Speed Heading
2026-05-04 04:49 -17.41411 -66.17995 8368 ft 0 kts 45°
2026-05-04 05:06 -17.41430 -66.18014 8368 ft 2 kts 45°
2026-05-04 05:06 -17.41441 -66.18026 8368 ft 2 kts 45°
2026-05-04 05:06 -17.41451 -66.18040 8368 ft 2 kts 77°
2026-05-04 05:07 -17.41449 -66.18051 8368 ft 1 kts 130°
2026-05-04 05:07 -17.41446 -66.18054 8368 ft 0 kts 134°
2026-05-04 05:10 -17.41448 -66.18053 8368 ft 2 kts 134°
2026-05-04 05:10 -17.41480 -66.18015 8368 ft 12 kts 130°
2026-05-04 05:10 -17.41539 -66.17938 8368 ft 13 kts 129°
2026-05-04 05:11 -17.41604 -66.17872 8368 ft 13 kts 154°
2026-05-04 05:11 -17.41690 -66.17869 8368 ft 12 kts 190°
2026-05-04 05:11 -17.41772 -66.17885 8368 ft 12 kts 191°
2026-05-04 05:11 -17.41851 -66.17901 8368 ft 11 kts 191°
2026-05-04 05:12 -17.41927 -66.17910 8368 ft 11 kts 166°
2026-05-04 05:12 -17.41993 -66.17855 8368 ft 15 kts 131°
2026-05-04 05:12 -17.42084 -66.17745 8368 ft 26 kts 131°
2026-05-04 05:12 -17.42232 -66.17573 8368 ft 37 kts 132°
2026-05-04 05:13 -17.42409 -66.17371 8368 ft 36 kts 131°
2026-05-04 05:13 -17.42569 -66.17181 8368 ft 33 kts 133°
2026-05-04 05:13 -17.42718 -66.17008 8368 ft 31 kts 131°
2026-05-04 05:13 -17.42853 -66.16850 8368 ft 27 kts 133°
2026-05-04 05:14 -17.42973 -66.16713 8368 ft 23 kts 131°
2026-05-04 05:14 -17.43064 -66.16605 8368 ft 17 kts 131°
2026-05-04 05:14 -17.43098 -66.16504 8368 ft 15 kts 94°
2026-05-04 05:14 -17.43147 -66.16474 8368 ft 9 kts 252°
2026-05-04 05:15 -17.43133 -66.16521 8368 ft 7 kts 311°
2026-05-04 05:15 -17.43131 -66.16523 8368 ft 0 kts 314°
2026-05-04 05:15 -17.43124 -66.16532 8368 ft 6 kts 311°
2026-05-04 05:15 -17.43015 -66.16662 8368 ft 54 kts 311°
2026-05-04 05:16 -17.42624 -66.17118 8368 ft 113 kts 311°
2026-05-04 05:16 -17.41974 -66.17874 8369 ft 165 kts 311°
2026-05-04 05:16 -17.41134 -66.18877 8617 ft 189 kts 309°
2026-05-04 05:16 -17.40293 -66.19925 9386 ft 187 kts 309°
2026-05-04 05:17 -17.39425 -66.20967 10077 ft 194 kts 310°
2026-05-04 05:17 -17.38547 -66.22055 10582 ft 205 kts 307°
2026-05-04 05:17 -17.37845 -66.23432 10826 ft 226 kts 283°
2026-05-04 05:17 -17.37866 -66.25132 11053 ft 248 kts 255°
2026-05-04 05:18 -17.38707 -66.26782 11302 ft 271 kts 229°
2026-05-04 05:18 -17.40262 -66.27949 11972 ft 279 kts 204°
2026-05-04 05:18 -17.42195 -66.28366 12586 ft 295 kts 182°
2026-05-04 05:18 -17.44281 -66.27953 12967 ft 318 kts 161°
2026-05-04 05:19 -17.46222 -66.26688 13291 ft 343 kts 140°
2026-05-04 05:19 -17.47765 -66.24715 13764 ft 359 kts 123°
2026-05-04 05:19 -17.48943 -66.22375 14427 ft 365 kts 121°
2026-05-04 05:19 -17.50218 -66.20065 15158 ft 368 kts 122°
2026-05-04 05:20 -17.51516 -66.17736 15817 ft 372 kts 123°
2026-05-04 05:20 -17.52825 -66.15381 16509 ft 375 kts 122°
2026-05-04 05:20 -17.54134 -66.13000 17208 ft 378 kts 122°
2026-05-04 05:20 -17.55450 -66.10591 17837 ft 382 kts 122°
2026-05-04 05:21 -17.56753 -66.08195 18471 ft 385 kts 122°
2026-05-04 05:21 -17.58100 -66.05714 19110 ft 387 kts 121°
2026-05-04 05:21 -17.59433 -66.03258 19749 ft 390 kts 120°
2026-05-04 05:21 -17.60761 -66.00801 20306 ft 393 kts 120°
2026-05-04 05:22 -17.62116 -65.98295 20850 ft 397 kts 120°
2026-05-04 05:22 -17.63485 -65.95759 21366 ft 401 kts 121°
2026-05-04 05:22 -17.64866 -65.93203 21901 ft 405 kts 120°
2026-05-04 05:22 -17.66217 -65.90602 22402 ft 408 kts 116°
2026-05-04 05:23 -17.67177 -65.87779 22899 ft 413 kts 105°
2026-05-04 05:23 -17.67647 -65.84796 23392 ft 416 kts 96°
2026-05-04 05:23 -17.67739 -65.81755 23874 ft 419 kts 90°
2026-05-04 05:23 -17.67633 -65.78680 24293 ft 423 kts 88°
2026-05-04 05:24 -17.67529 -65.75586 24728 ft 426 kts 89°
2026-05-04 05:24 -17.67455 -65.72505 25130 ft 429 kts 89°
2026-05-04 05:24 -17.67393 -65.69323 25529 ft 433 kts 89°
2026-05-04 05:24 -17.67333 -65.66153 25923 ft 435 kts 89°
2026-05-04 05:25 -17.67275 -65.63027 26429 ft 434 kts 89°
2026-05-04 05:25 -17.67224 -65.59858 26995 ft 433 kts 90°
2026-05-04 05:25 -17.67185 -65.56708 27529 ft 431 kts 90°
2026-05-04 05:25 -17.67144 -65.53565 28001 ft 432 kts 90°
2026-05-04 05:26 -17.67100 -65.50396 28240 ft 437 kts 90°
2026-05-04 05:26 -17.67056 -65.47191 28280 ft 441 kts 90°
2026-05-04 05:26 -17.66964 -65.40790 28291 ft 438 kts 90°
2026-05-04 05:28 -17.66611 -65.15471 28290 ft 436 kts 90°
2026-05-04 05:29 -17.66520 -65.09126 28291 ft 435 kts 90°
2026-05-04 05:29 -17.66425 -65.02803 28290 ft 434 kts 90°
2026-05-04 05:31 -17.66019 -64.77610 28291 ft 427 kts 90°
2026-05-04 05:32 -17.65913 -64.71383 27909 ft 425 kts 90°
2026-05-04 05:32 -17.65859 -64.68297 27504 ft 421 kts 90°
2026-05-04 05:33 -17.65753 -64.62177 26609 ft 417 kts 90°
2026-05-04 05:33 -17.65701 -64.59185 26172 ft 415 kts 90°
2026-05-04 05:33 -17.65648 -64.56165 25731 ft 413 kts 90°
2026-05-04 05:33 -17.65593 -64.53155 25285 ft 411 kts 90°
2026-05-04 05:34 -17.65539 -64.50175 24844 ft 408 kts 90°
2026-05-04 05:34 -17.65483 -64.47204 24401 ft 406 kts 90°
2026-05-04 05:34 -17.65428 -64.44252 23959 ft 404 kts 90°
2026-05-04 05:34 -17.65375 -64.41313 23509 ft 402 kts 90°
2026-05-04 05:35 -17.65321 -64.38383 23058 ft 400 kts 90°
2026-05-04 05:35 -17.65265 -64.35467 22610 ft 398 kts 90°
2026-05-04 05:35 -17.65211 -64.32607 22172 ft 396 kts 90°
2026-05-04 05:35 -17.65153 -64.29721 21719 ft 394 kts 90°
2026-05-04 05:36 -17.65101 -64.26853 21272 ft 393 kts 90°
2026-05-04 05:36 -17.65045 -64.23996 20829 ft 391 kts 90°
2026-05-04 05:36 -17.64989 -64.21152 20387 ft 389 kts 90°
2026-05-04 05:36 -17.64934 -64.18325 19947 ft 387 kts 90°
2026-05-04 05:37 -17.64881 -64.15517 19507 ft 385 kts 90°
2026-05-04 05:37 -17.64826 -64.12712 19061 ft 384 kts 90°
2026-05-04 05:37 -17.64768 -64.09918 18617 ft 382 kts 90°
2026-05-04 05:38 -17.64654 -64.04364 17740 ft 379 kts 90°
2026-05-04 05:38 -17.64598 -64.01612 17306 ft 377 kts 90°
2026-05-04 05:38 -17.64540 -63.98906 16874 ft 373 kts 90°
2026-05-04 05:38 -17.64486 -63.96251 16449 ft 355 kts 90°
2026-05-04 05:39 -17.64432 -63.93717 16049 ft 340 kts 90°
2026-05-04 05:39 -17.64330 -63.88869 15293 ft 339 kts 90°
2026-05-04 05:39 -17.64270 -63.86370 14900 ft 347 kts 90°
2026-05-04 05:40 -17.64166 -63.81473 14116 ft 323 kts 90°
2026-05-04 05:40 -17.64116 -63.79111 13740 ft 330 kts 90°
2026-05-04 05:40 -17.64062 -63.76674 13366 ft 339 kts 90°
2026-05-04 05:41 -17.64009 -63.74213 12977 ft 333 kts 90°
2026-05-04 05:41 -17.63958 -63.71858 12602 ft 319 kts 90°
2026-05-04 05:41 -17.63907 -63.69533 12233 ft 316 kts 90°
2026-05-04 05:41 -17.63854 -63.67167 11872 ft 343 kts 90°
2026-05-04 05:42 -17.63839 -63.66531 11770 ft 345 kts 90°
2026-05-04 05:42 -17.63820 -63.65701 11640 ft 346 kts 90°
2026-05-04 05:43 -17.63762 -63.63166 11234 ft 348 kts 90°
2026-05-04 05:43 -17.63705 -63.60687 11007 ft 330 kts 90°
2026-05-04 05:43 -17.63652 -63.58357 10788 ft 313 kts 90°
2026-05-04 05:45 -17.63312 -63.42983 8442 ft 302 kts 90°
2026-05-04 05:45 -17.63264 -63.40862 8313 ft 280 kts 91°
2026-05-04 05:47 -17.62965 -63.28762 6506 ft 221 kts 91°
2026-05-04 05:47 -17.62925 -63.27157 6257 ft 221 kts 91°
2026-05-04 05:47 -17.62911 -63.26552 6165 ft 221 kts 91°
2026-05-04 05:48 -17.62902 -63.26206 6111 ft 221 kts 91°
2026-05-04 05:48 -17.62862 -63.24625 5872 ft 217 kts 91°
2026-05-04 05:48 -17.62823 -63.23088 5621 ft 205 kts 91°
2026-05-04 05:48 -17.62786 -63.21625 5384 ft 197 kts 90°
2026-05-04 05:49 -17.62751 -63.20204 5164 ft 195 kts 90°
2026-05-04 05:49 -17.62715 -63.18789 4940 ft 192 kts 90°
2026-05-04 05:49 -17.62680 -63.17398 4715 ft 191 kts 89°
2026-05-04 05:49 -17.62644 -63.16010 4483 ft 189 kts 90°
2026-05-04 05:51 -17.67015 -63.08362 4205 ft 186 kts 127°
2026-05-04 05:51 -17.67773 -63.07267 4209 ft 185 kts 127°
2026-05-04 05:52 -17.68782 -63.05803 4213 ft 188 kts 127°
2026-05-04 05:52 -17.69547 -63.04690 4212 ft 187 kts 127°
2026-05-04 05:52 -17.70303 -63.03589 4185 ft 187 kts 127°
2026-05-04 05:52 -17.70811 -63.02851 4143 ft 188 kts 127°
2026-05-04 05:53 -17.71573 -63.01740 4072 ft 188 kts 127°
2026-05-04 05:54 -17.76237 -63.03984 3338 ft 163 kts 253°
2026-05-04 05:55 -17.76229 -63.05167 3223 ft 168 kts 292°
2026-05-04 05:55 -17.75462 -63.06077 3206 ft 169 kts 316°
2026-05-04 05:55 -17.74527 -63.06794 3153 ft 165 kts 324°
2026-05-04 05:55 -17.73589 -63.07415 3009 ft 159 kts 326°
2026-05-04 05:56 -17.72652 -63.08038 2811 ft 158 kts 325°
2026-05-04 05:56 -17.71726 -63.08659 2601 ft 156 kts 325°
2026-05-04 05:56 -17.70818 -63.09269 2394 ft 154 kts 325°
2026-05-04 05:56 -17.69920 -63.09873 2189 ft 151 kts 325°
2026-05-04 05:57 -17.69044 -63.10463 1991 ft 150 kts 325°
2026-05-04 05:57 -17.68171 -63.11050 1797 ft 151 kts 325°
2026-05-04 05:57 -17.67289 -63.11644 1598 ft 150 kts 325°
2026-05-04 05:57 -17.66410 -63.12235 1398 ft 150 kts 325°
2026-05-04 05:58 -17.65540 -63.12820 1234 ft 144 kts 325°
2026-05-04 05:58 -17.64898 -63.13258 1232 ft 70 kts 326°
2026-05-04 05:58 -17.64665 -63.13416 1232 ft 19 kts 327°
2026-05-04 05:58 -17.64631 -63.13438 1232 ft 0 kts 327°
2026-05-04 05:59 -17.64540 -63.13497 1232 ft 31 kts 329°
2026-05-04 05:59 -17.64301 -63.13662 1232 ft 43 kts 323°
2026-05-04 05:59 -17.64073 -63.13824 1232 ft 37 kts 329°
2026-05-04 05:59 -17.63936 -63.13907 1232 ft 19 kts 330°
2026-05-04 06:00 -17.63928 -63.14004 1232 ft 15 kts 245°
2026-05-04 06:00 -17.63989 -63.14079 1232 ft 14 kts 174°
2026-05-04 06:00 -17.64070 -63.14026 1232 ft 13 kts 148°
2026-05-04 06:00 -17.64147 -63.13976 1232 ft 13 kts 148°
2026-05-04 06:01 -17.64220 -63.13928 1232 ft 12 kts 149°
2026-05-04 06:01 -17.64291 -63.13882 1232 ft 12 kts 147°
2026-05-04 06:03 -17.64766 -63.13563 1232 ft 26 kts 146°
2026-05-04 06:03 -17.64910 -63.13465 1232 ft 23 kts 147°
2026-05-04 06:05 -17.65291 -63.13507 1232 ft 0 kts 235°